COSMOS 2251 DEB, 47048

Orbit data source: Space-Track

COSMOS 2251 DEB, 47048 is space debris in LEO originally from a launch on Wed, 16 Jun 1993 UTC launched from the Plesetsk Missile And Space Complex (PKMTR). The debris from Iridium 33, an American commercial communications satellite, has been tracked extensively since its accidental collision with the defunct Russian satellite Cosmos 2251 in 2009. This event, occurring at high speed in low Earth orbit (LEO), generated thousands of pieces of space debris, significantly increasing the risk of further collisions. The Iridium 33 debris cloud has impacted space traffic management and orbital debris mitigation strategies, making it a subject of ongoing study in space situational awareness.

Loading next visibility...
Identifier
47048, 1993-036BXC
Orbit
LEO
Country
Flag of CISCIS
Related business
Manufacturer
Unknown
Mission
Spacecraft
Bus & Motor
Unknown
Mass
Unknown
Launch date (UTC)
1993-06-16 (33 years ago)
Launch vehicle
Unknown
Launch site
Plesetsk Missile And Space Complex (PKMTR)
Object type
Payload
Rocket body
Debris
Shape & HBR
Unknown shape, 0.1 m
Radar Cross Section
Small (<0.1 m²)

Expand to show TLE details & history
Last TLE update: 1 week ago

TLE from 1 week ago
0 COSMOS 2251 DEB
1 47048U 93036BXC 26063.97448354  .00006249  00000-0  13408-2 0  9994
2 47048  73.9819 163.4680 0134876 330.2926 148.2271 14.53273661608843
Epoch: 2026-03-04T23:23Z
TLE epoch observation values (Epoch: 2026-03-04T23:23:15.377Z)
Latitude
57.03978°
Longitude
163.79269°
Altitude
805.884 km
Speed
7.413 km/s
True Right ascension
21h 09m 21s
True Declination
56° 53' 01"
Sunlit
Object was in daylight at epoch
Visualization orbit readout
Latitude
Unknown
Longitude
Unknown
Altitude
Unknown
Speed
Unknown
Apparent Right ascension
Unknown
Apparent Declination
Unknown
Sunlit
N/A
Visualization observer readout
Local Sidereal Time
19:36:34
Azimuth
Unknown
Elevation
Unknown
Doppler factor
Unknown
Orbital elements
Apogee altitude
808.222 km
Perigee altitude
616.949 km
Semi-major axis
7,090.722 km
Eccentricity
0.01349
Inclination
73.9819°
RAAN
163.468°
Arg. of periapsis
330.2926°
True anomaly
149.02939°
Mean anomaly
148.2271°
Eccentric anomaly
148.62939°
Mean motion
3.63503 °/min
Orbital period
99.04 mins
BSTAR
0.0013408
Loading maneuver chart data...
Computing Atmospheric mass density...

Documentation

Showing up to 5 results
|